K9RCP-20 Weather Reports


time (UTC)temp
F
wind
direction
speed
knots
gust
knots
rain 1hr
in
rain 24hr
in
rain mn
in
humidity
%
barometer
mb
20260507224543 74 276 1.7 2.6 0.00 0.00 0.00 41 1015.0
20260507224040 74 188 0.0 0.9 0.00 0.00 0.00 40 1015.0
20260507223536 75 273 3.5 3.5 0.00 0.00 0.00 39 1014.9
20260507223033 72 25 0.0 0.0 0.00 0.00 0.00 40 1015.2
20260507222530 73 251 1.7 2.6 0.00 0.00 0.00 39 1015.0
20260507222026 72 272 1.7 1.7 0.00 0.00 0.00 41 1015.2
20260507221523 71 276 4.3 7.0 0.00 0.00 0.00 42 1015.2
20260507221020 71 275 2.6 2.6 0.00 0.00 0.00 43 1015.4
20260507220517 71 336 0.9 1.7 0.00 0.00 0.00 40 1015.6
20260507220015 71 248 5.2 6.1 0.00 0.00 0.00 42 1015.4
20260507215510 71 50 1.7 2.6 0.00 0.00 0.00 40 1015.5
20260507215009 69 247 0.9 1.7 0.00 0.00 0.00 41 1015.6
20260507214505 69 177 2.6 3.5 0.00 0.00 0.00 42 1015.5
20260507214001 71 167 0.9 1.7 0.00 0.00 0.00 40 1015.7
20260507213458 68 168 1.7 1.7 0.00 0.00 0.00 40 1015.8
20260507212954 71 327 1.7 1.7 0.00 0.00 0.00 40 1015.6
20260507212450 69 128 0.0 0.0 0.00 0.00 0.00 41 1015.8
20260507211948 68 243 1.7 1.7 0.00 0.00 0.00 44 1015.8
20260507211444 68 219 1.7 2.6 0.00 0.00 0.00 43 1015.8
20260507210941 68 127 0.9 1.7 0.00 0.00 0.00 42 1016.0
20260507210438 68 257 3.5 3.5 0.00 0.00 0.00 41 1016.1
20260507205935 68 41 0.9 1.7 0.00 0.00 0.00 41 1016.2
20260507205432 68 266 4.3 6.1 0.00 0.00 0.00 42 1016.2
20260507204928 69 314 1.7 2.6 0.00 0.00 0.00 42 1016.3
20260507204424 70 140 0.0 0.9 0.00 0.00 0.00 44 1016.3
20260507203922 68 199 2.6 2.6 0.00 0.00 0.00 47 1016.5
20260507203420 64 98 0.9 0.9 0.00 0.00 0.00 50 1016.5
20260507202916 66 105 3.5 3.5 0.00 0.00 0.00 49 1016.4
20260507202413 67 146 1.7 1.7 0.00 0.00 0.00 48 1016.4
20260507201908 66 352 0.9 1.7 0.00 0.00 0.00 48 1016.5
20260507201403 66 284 1.7 2.6 0.00 0.00 0.00 49 1017.0
20260507200900 67 302 2.6 2.6 0.00 0.00 0.00 49 1016.9
20260507200356 67 59 1.7 1.7 0.00 0.00 0.00 48 1016.7
20260507195852 66 91 0.0 0.9 0.00 0.00 0.00 49 1016.9
20260507195350 67 145 0.9 0.9 0.00 0.00 0.00 49 1017.0
20260507194847 66 145 0.9 1.7 0.00 0.00 0.00 50 1017.0
20260507194343 66 274 2.6 5.2 0.00 0.00 0.00 50 1017.1
20260507193840 65 258 1.7 2.6 0.00 0.00 0.00 52 1016.9
20260507193337 67 132 1.7 2.6 0.00 0.00 0.00 49 1017.1
20260507192833 65 136 0.9 0.9 0.00 0.00 0.00 52 1017.2
20260507192330 65 137 0.0 0.0 0.00 0.00 0.00 52 1017.4
20260507191826 64 167 4.3 5.2 0.00 0.00 0.00 55 1017.2
20260507191322 64 106 3.5 3.5 0.00 0.00 0.00 53 1017.3
20260507190819 62 102 2.6 2.6 0.00 0.00 0.00 56 1017.4
20260507190318 64 102 5.2 6.1 0.00 0.00 0.00 54 1017.6
20260507185816 63 66 1.7 1.7 0.00 0.00 0.00 54 1017.3
20260507185313 64 160 1.7 3.5 0.00 0.00 0.00 54 1017.5
20260507184810 63 188 0.0 0.9 0.00 0.00 0.00 54 1017.5
20260507184308 63 161 1.7 2.6 0.00 0.00 0.00 54 1017.8
20260507183804 62 156 0.0 0.9 0.00 0.00 0.00 58 1017.5
20260507183302 62 120 2.6 2.6 0.00 0.00 0.00 57 1017.7
20260507182800 63 177 3.5 3.5 0.00 0.00 0.00 56 1017.7
20260507182300 64 180 0.9 1.7 0.00 0.00 0.00 55 1017.8
20260507181757 60 160 0.0 0.0 0.00 0.00 0.00 58 1017.9
20260507181253 61 121 0.0 0.0 0.00 0.00 0.00 60 1017.9
20260507180749 61 289 3.5 5.2 0.00 0.00 0.00 61 1018.0
20260507180247 60 195 0.9 1.7 0.00 0.00 0.00 61 1018.0
20260507175742 60 256 3.5 5.2 0.00 0.00 0.00 61 1018.1
20260507175239 60 14 1.7 2.6 0.00 0.00 0.00 60 1018.0
20260507174736 60 271 3.5 3.5 0.00 0.00 0.00 59 1018.1
20260507174235 59 100 0.9 1.7 0.00 0.00 0.00 64 1018.0
20260507173732 60 99 0.9 1.7 0.00 0.00 0.00 62 1017.9
20260507173229 59 32 0.9 0.9 0.00 0.00 0.00 63 1018.2
20260507172725 60 32 2.6 2.6 0.00 0.00 0.00 62 1018.2
20260507172222 60 99 0.9 0.9 0.00 0.00 0.00 62 1018.2
20260507171722 59 173 1.7 2.6 0.00 0.00 0.00 64 1018.4
20260507171220 59 46 0.9 0.9 0.00 0.00 0.00 64 1018.3
20260507170716 59 30 0.9 1.7 0.00 0.00 0.00 64 1018.3
20260507170214 57 289 1.7 3.5 0.00 0.00 0.00 65 1018.4
20260507165709 57 44 1.7 1.7 0.00 0.00 0.00 67 1018.2
20260507165206 58 19 2.6 3.5 0.00 0.00 0.00 66 1018.3
20260507164702 57 10 2.6 3.5 0.00 0.00 0.00 65 1018.2
20260507164159 57 18 1.7 2.6 0.00 0.00 0.00 66 1018.3
20260507163656 56 253 1.7 2.6 0.00 0.00 0.00 67 1018.3
20260507163154 56 30 1.7 2.6 0.00 0.00 0.00 68 1018.3
20260507162649 56 232 3.5 5.2 0.00 0.00 0.00 67 1018.3
20260507162146 55 24 1.7 2.6 0.00 0.00 0.00 68 1018.4
20260507161642 55 25 2.6 2.6 0.00 0.00 0.00 69 1018.5
20260507161139 56 28 1.7 2.6 0.00 0.00 0.00 68 1018.4
20260507160635 56 16 0.9 1.7 0.00 0.00 0.00 68 1018.4
20260507160132 56 1 3.5 5.2 0.00 0.00 0.00 68 1018.5
20260507155627 55 5 1.7 2.6 0.00 0.00 0.00 69 1018.3
20260507155124 55 349 1.7 2.6 0.00 0.00 0.00 69 1018.2
20260507154621 55 19 1.7 2.6 0.00 0.00 0.00 69 1018.3
20260507154119 55 25 2.6 3.5 0.00 0.00 0.00 69 1018.2
20260507153615 55 4 1.7 1.7 0.00 0.00 0.00 69 1018.1
20260507153111 55 29 0.9 0.9 0.00 0.00 0.00 70 1018.4
20260507152608 55 31 2.6 2.6 0.00 0.00 0.00 70 1018.1
20260507152104 55 4 0.9 1.7 0.00 0.00 0.00 71 1018.1
20260507151600 55 35 1.7 1.7 0.00 0.00 0.00 71 1018.3
20260507151057 55 9 3.5 3.5 0.00 0.00 0.00 71 1018.2
20260507150554 54 21 2.6 2.6 0.00 0.00 0.00 72 1018.4
20260507150051 54 21 1.7 1.7 0.00 0.00 0.00 72 1018.4
20260507145546 53 21 0.9 1.7 0.00 0.00 0.00 72 1018.3
20260507145044 54 25 0.9 1.7 0.00 0.00 0.00 72 1018.3
20260507144540 54 23 0.9 1.7 0.00 0.00 0.00 72 1018.3
20260507144038 53 24 0.9 1.7 0.00 0.00 0.00 72 1018.3
20260507143535 53 1 0.9 0.9 0.00 0.00 0.00 72 1018.4
20260507143032 53 1 2.6 2.6 0.00 0.00 0.00 72 1018.4
20260507142527 53 21 0.0 0.9 0.00 0.00 0.00 72 1018.3
20260507142025 53 20 0.0 0.9 0.00 0.00 0.00 73 1018.2
20260507141520 53 20 1.7 2.6 0.00 0.00 0.00 73 1018.3
20260507141012 53 20 1.7 1.7 0.00 0.00 0.00 74 1018.1
20260507140508 53 20 1.7 2.6 0.00 0.00 0.00 74 1018.1
20260507140006 52 20 0.9 0.9 0.00 0.00 0.00 74 1018.0
20260507135502 52 29 0.9 1.7 0.00 0.00 0.00 74 1018.1
20260507134959 52 20 1.7 2.6 0.00 0.00 0.00 74 1018.0
20260507134456 52 34 0.9 0.9 0.00 0.00 0.00 74 1017.7
20260507133952 52 24 0.0 0.9 0.00 0.00 0.00 75 1017.9
20260507133448 52 24 0.0 0.9 0.00 0.00 0.00 75 1017.7
20260507132947 52 21 0.0 0.0 0.00 0.00 0.00 75 1017.8
20260507132442 52 20 1.7 1.7 0.00 0.00 0.00 74 1017.9
20260507131939 52 21 0.9 0.9 0.00 0.00 0.00 75 1017.8
20260507131436 52 15 0.9 1.7 0.00 0.00 0.00 75 1017.9
20260507130933 52 21 0.9 1.7 0.00 0.00 0.00 75 1017.9
20260507130430 52 21 0.9 0.9 0.00 0.00 0.00 75 1017.8
20260507125929 52 21 1.7 2.6 0.00 0.00 0.00 75 1017.8
20260507125426 52 4 0.9 1.7 0.00 0.00 0.00 74 1017.8
20260507124924 52 24 0.0 0.9 0.00 0.00 0.00 75 1017.8
20260507124419 53 20 0.0 0.0 0.00 0.00 0.00 74 1018.0
20260507123918 53 24 0.9 0.9 0.00 0.00 0.00 74 1017.8
20260507123415 53 0 0.9 1.7 0.00 0.00 0.00 74 1018.1
20260507122912 53 20 0.0 0.0 0.00 0.00 0.00 74 1017.7
20260507122407 53 19 1.7 2.6 0.00 0.00 0.00 73 1018.0
20260507121903 53 29 0.9 0.9 0.00 0.00 0.00 74 1018.1
20260507121358 53 20 0.0 0.0 0.00 0.00 0.00 74 1018.0
20260507120855 53 20 0.0 0.9 0.00 0.00 0.00 75 1018.1
20260507120352 53 13 1.7 1.7 0.00 0.00 0.00 75 1018.0
20260507115848 53 20 1.7 1.7 0.00 0.00 0.00 75 1018.2
20260507115344 53 20 0.9 0.9 0.00 0.00 0.00 75 1018.1
20260507114839 53 16 1.7 1.7 0.00 0.00 0.00 75 1018.1
20260507114337 53 357 2.6 2.6 0.00 0.00 0.00 74 1018.3
20260507113834 53 359 0.9 0.9 0.00 0.00 0.00 74 1018.4
20260507113331 53 20 0.9 1.7 0.00 0.00 0.00 74 1018.2
20260507112829 53 20 0.0 0.0 0.00 0.00 0.00 75 1018.4
20260507112325 53 20 0.9 0.9 0.00 0.00 0.00 75 1018.3
20260507111824 53 21 0.0 0.9 0.00 0.00 0.00 75 1018.2
20260507111320 53 20 0.9 0.9 0.00 0.00 0.00 75 1018.4
20260507110816 53 20 0.9 0.9 0.00 0.00 0.00 74 1018.5
20260507110313 54 19 0.9 1.7 0.00 0.00 0.00 74 1018.2
20260507105810 54 20 0.9 1.7 0.00 0.00 0.00 74 1018.2
20260507105307 54 23 1.7 1.7 0.00 0.00 0.00 73 1018.3
20260507104803 53 26 0.9 1.7 0.00 0.00 0.00 74 1018.5
20260507104259 54 20 0.9 1.7 0.00 0.00 0.00 74 1018.5
20260507103755 54 19 1.7 2.6 0.00 0.00 0.00 74 1018.4
20260507103252 54 20 2.6 2.6 0.00 0.00 0.00 74 1018.5
20260507102748 54 24 0.9 0.9 0.00 0.00 0.00 74 1018.6
20260507102245 54 16 1.7 2.6 0.00 0.00 0.00 74 1018.5
20260507101741 54 22 1.7 1.7 0.00 0.00 0.00 75 1018.5
20260507101236 54 21 0.9 0.9 0.00 0.00 0.00 75 1018.4
20260507100735 54 9 2.6 2.6 0.00 0.00 0.00 75 1018.6
20260507100233 54 21 1.7 1.7 0.00 0.00 0.00 75 1018.6
20260507095730 54 12 2.6 2.6 0.00 0.00 0.00 75 1018.5
20260507095226 54 23 1.7 1.7 0.00 0.00 0.00 75 1018.6
20260507094723 54 352 3.5 5.2 0.00 0.00 0.00 75 1018.7
20260507094220 54 12 1.7 2.6 0.00 0.00 0.00 75 1018.6
20260507093717 54 10 1.7 2.6 0.00 0.00 0.00 75 1018.6
20260507093215 55 12 0.0 0.0 0.00 0.00 0.00 75 1018.5
20260507092712 54 16 1.7 1.7 0.00 0.00 0.00 75 1018.7
20260507092209 54 14 1.7 1.7 0.00 0.00 0.00 75 1018.8
20260507091705 55 14 0.0 0.0 0.00 0.00 0.00 75 1018.9
20260507091202 55 359 1.7 1.7 0.00 0.00 0.00 74 1018.7
20260507090657 54 10 0.9 1.7 0.00 0.00 0.00 74 1018.8
20260507090154 54 12 1.7 1.7 0.00 0.00 0.00 75 1018.8
20260507085651 55 80 1.7 2.6 0.00 0.00 0.00 75 1018.9
20260507085148 55 80 0.0 0.9 0.00 0.00 0.00 75 1019.0
20260507084645 55 80 1.7 1.7 0.00 0.00 0.00 75 1018.9
20260507084141 55 23 1.7 1.7 0.00 0.00 0.00 75 1018.8
20260507083638 55 14 0.0 0.9 0.00 0.00 0.00 76 1018.8
20260507083135 55 14 0.0 0.0 0.00 0.00 0.00 76 1019.0
20260507082631 55 11 0.9 1.7 0.00 0.00 0.00 76 1019.0
20260507082128 55 14 0.0 0.9 0.00 0.00 0.00 76 1018.9
20260507081624 55 11 1.7 1.7 0.00 0.00 0.00 76 1018.8
20260507081121 55 14 1.7 1.7 0.00 0.00 0.00 75 1018.9
20260507080617 55 0 0.9 1.7 0.00 0.00 0.00 75 1018.7
20260507080114 55 9 0.9 1.7 0.00 0.00 0.00 75 1019.1
20260507075608 55 356 0.9 1.7 0.00 0.00 0.00 75 1018.8
20260507075105 55 11 0.9 0.9 0.00 0.00 0.00 75 1018.8
20260507074602 55 11 1.7 1.7 0.00 0.00 0.00 75 1019.0
20260507074101 55 8 1.7 3.5 0.00 0.00 0.00 76 1018.9
20260507073556 55 9 3.5 3.5 0.00 0.00 0.00 76 1018.9
20260507073053 55 352 1.7 1.7 0.00 0.00 0.00 76 1018.9
20260507072550 56 353 1.7 2.6 0.00 0.00 0.00 76 1018.6
20260507072047 55 2 0.9 0.9 0.00 0.00 0.00 76 1018.8
20260507071545 56 8 1.7 1.7 0.00 0.00 0.00 75 1019.0
20260507071041 56 11 0.9 1.7 0.00 0.00 0.00 76 1018.7
20260507070538 56 13 0.9 1.7 0.00 0.00 0.00 76 1018.6
20260507070035 56 344 0.9 1.7 0.00 0.00 0.00 76 1018.8
20260507065532 56 3 1.7 1.7 0.00 0.00 0.00 76 1018.7
20260507065029 56 1 2.6 2.6 0.00 0.00 0.00 76 1018.7
20260507064527 56 0 0.9 1.7 0.00 0.00 0.00 76 1018.6
20260507064025 56 20 1.7 1.7 0.00 0.00 0.00 76 1018.5
20260507063522 56 0 1.7 2.6 0.00 0.00 0.00 76 1018.7
20260507063020 56 329 4.3 7.0 0.00 0.00 0.00 76 1018.9
20260507062516 56 10 0.9 0.9 0.00 0.00 0.00 75 1018.7
20260507062014 56 357 0.0 0.9 0.00 0.00 0.00 76 1018.9
20260507061511 56 17 0.0 0.0 0.00 0.00 0.00 76 1018.9
20260507061009 57 17 0.9 1.7 0.00 0.00 0.00 76 1018.7
20260507060506 57 15 0.9 1.7 0.00 0.00 0.00 77 1018.8
20260507060004 57 25 1.7 2.6 0.00 0.00 0.00 77 1018.5
20260507055458 57 356 0.0 0.9 0.00 0.00 0.00 77 1018.5
20260507054955 57 15 4.3 5.2 0.00 0.00 0.00 77 1018.6
20260507054450 58 16 0.9 0.9 0.00 0.00 0.00 76 1018.4
20260507053948 58 16 0.9 0.9 0.00 0.00 0.00 76 1018.6
20260507053446 58 17 0.0 0.9 0.00 0.00 0.00 76 1018.4
20260507052944 58 15 0.9 0.9 0.00 0.00 0.00 76 1018.2
20260507052441 58 22 3.5 3.5 0.00 0.00 0.00 75 1018.4
20260507051938 58 13 3.5 3.5 0.00 0.00 0.00 75 1018.6
20260507051436 59 13 0.9 1.7 0.00 0.00 0.00 74 1018.6
20260507050932 59 15 3.5 3.5 0.00 0.00 0.00 75 1018.5
20260507050429 59 36 0.9 0.9 0.00 0.00 0.00 75 1018.6
20260507045926 59 11 1.7 2.6 0.00 0.00 0.00 74 1018.5
20260507045422 59 15 0.9 1.7 0.00 0.00 0.00 75 1018.6
20260507044920 59 26 1.7 1.7 0.00 0.00 0.00 75 1018.7
20260507044416 59 36 1.7 2.6 0.00 0.00 0.00 75 1018.3
20260507043912 60 16 0.9 0.9 0.00 0.00 0.00 74 1018.5
20260507043409 60 25 0.9 1.7 0.00 0.00 0.00 77 1018.4
20260507042905 60 92 1.7 2.6 0.00 0.00 0.00 77 1018.4
20260507042402 59 46 0.9 1.7 0.00 0.00 0.00 78 1018.3
20260507041852 59 94 1.7 1.7 0.00 0.00 0.00 77 1018.4
20260507041349 58 94 0.9 0.9 0.00 0.00 0.00 78 1018.3
20260507040847 59 94 0.9 0.9 0.00 0.00 0.00 77 1018.0
20260507040342 59 106 0.9 0.9 0.00 0.00 0.00 78 1018.0
20260507035838 59 130 1.7 1.7 0.00 0.00 0.00 78 1017.8
20260507035334 59 127 2.6 2.6 0.00 0.00 0.00 77 1018.0
20260507034832 59 118 1.7 2.6 0.00 0.00 0.00 77 1017.9
20260507034329 59 94 1.7 2.6 0.00 0.00 0.00 77 1017.7
20260507033827 59 108 0.9 1.7 0.00 0.00 0.00 76 1017.5
20260507033325 59 109 0.0 0.9 0.00 0.00 0.00 75 1017.7
20260507032821 60 152 0.9 0.9 0.00 0.00 0.00 75 1017.6
20260507032317 60 151 0.9 0.9 0.00 0.00 0.00 74 1017.4
20260507031814 60 164 1.7 2.6 0.00 0.00 0.00 74 1017.5
20260507031311 61 163 1.7 2.6 0.00 0.00 0.00 73 1017.3
20260507030807 60 164 0.0 0.9 0.00 0.00 0.00 73 1017.4
20260507030305 61 173 1.7 1.7 0.00 0.00 0.00 73 1017.3
20260507025802 61 172 1.7 2.6 0.00 0.00 0.00 71 1017.2
20260507025259 61 173 2.6 2.6 0.00 0.00 0.00 72 1017.0
20260507024757 62 158 1.7 2.6 0.00 0.00 0.00 71 1017.1
20260507024254 62 176 1.7 2.6 0.00 0.00 0.00 70 1017.0
20260507023749 62 148 1.7 2.6 0.00 0.00 0.00 71 1016.9
20260507023246 62 137 2.6 3.5 0.00 0.00 0.00 72 1016.9
20260507022744 62 155 1.7 2.6 0.00 0.00 0.00 69 1017.0
20260507022240 63 154 0.9 0.9 0.00 0.00 0.00 69 1016.9
20260507021736 64 173 0.9 1.7 0.00 0.00 0.00 68 1016.9
20260507021232 64 106 1.7 1.7 0.00 0.00 0.00 67 1017.2
20260507020730 64 96 1.7 1.7 0.00 0.00 0.00 68 1016.8
20260507020226 64 153 4.3 6.1 0.00 0.00 0.00 67 1016.9
20260507015724 64 174 3.5 3.5 0.00 0.00 0.00 68 1017.0
20260507015221 65 166 4.3 5.2 0.00 0.00 0.00 68 1017.2
20260507014718 65 176 5.2 7.0 0.00 0.00 0.00 67 1017.0
20260507014214 66 171 3.5 5.2 0.00 0.00 0.00 67 1016.9
20260507013711 67 199 2.6 3.5 0.00 0.00 0.00 65 1017.1
20260507013208 67 200 4.3 5.2 0.00 0.00 0.00 66 1017.2
20260507012706 68 187 1.7 2.6 0.00 0.00 0.00 62 1017.2
20260507012201 67 147 2.6 3.5 0.00 0.00 0.00 64 1016.9
20260507011659 68 196 2.6 2.6 0.00 0.00 0.00 62 1016.9
20260507011155 67 173 3.5 5.2 0.00 0.00 0.00 64 1016.9
20260507010654 68 137 1.7 1.7 0.00 0.00 0.00 62 1016.9
20260507010150 68 181 2.6 3.5 0.00 0.00 0.00 60 1016.7
20260507005648 70 170 3.5 6.1 0.00 0.00 0.00 58 1016.8
20260507005144 70 220 3.5 5.2 0.00 0.00 0.00 58 1017.0
20260507004641 70 234 1.7 2.6 0.00 0.00 0.00 57 1017.1
20260507004139 70 187 3.5 5.2 0.00 0.00 0.00 58 1016.7
20260507003635 71 303 4.3 6.1 0.00 0.00 0.00 57 1017.0
20260507003130 71 287 1.7 2.6 0.00 0.00 0.00 58 1017.0
20260507002627 70 304 4.3 7.0 0.00 0.00 0.00 58 1016.9
20260507002122 72 275 3.5 5.2 0.00 0.00 0.00 57 1017.1
20260507001619 73 276 0.9 1.7 0.00 0.00 0.00 57 1016.8
20260507001117 73 272 1.7 2.6 0.00 0.00 0.00 56 1016.9
20260507000613 72 101 5.2 7.0 0.00 0.00 0.00 62 1016.7
20260507000108 72 242 2.6 2.6 0.00 0.00 0.00 56 1016.8
20260506235606 73 240 2.6 2.6 0.00 0.00 0.00 56 1016.8
20260506235106 73 197 2.6 2.6 0.00 0.00 0.00 55 1016.9
20260506234604 72 244 2.6 3.5 0.00 0.00 0.00 57 1016.9
20260506234101 73 269 3.5 3.5 0.00 0.00 0.00 55 1016.6
20260506233558 73 206 2.6 3.5 0.00 0.00 0.00 55 1016.9
20260506233054 73 258 4.3 7.0 0.00 0.00 0.00 55 1017.0
20260506232551 72 168 4.3 5.2 0.00 0.00 0.00 61 1016.7
20260506232046 71 264 2.6 3.5 0.00 0.00 0.00 61 1016.7
20260506231544 72 144 2.6 3.5 0.00 0.00 0.00 58 1017.0
20260506231042 75 102 1.7 2.6 0.00 0.00 0.00 58 1016.9
20260506230538 74 176 0.9 0.9 0.00 0.00 0.00 54 1017.0
20260506230035 73 304 0.9 1.7 0.00 0.00 0.00 55 1016.9
20260506225532 73 307 4.3 5.2 0.00 0.00 0.00 57 1017.2
20260506225028 75 173 2.6 3.5 0.00 0.00 0.00 54 1017.0